SCP
0 0 0 0 0 0 0 0 0 0 0 -0 -0 -0 0 -0 -0 0 0 0 0 0 0 0 0 -0 -0 0 0 0 0 0 0 0 0 0 0 0 0 0 0 0 0
0 0 0 0 0 0 0 0 0 -0 0 -0 -0 0 0 -0 -0 0 0 0 0 -0 0 0 0 0 0 0 0 0 0 0 0 0 0 0 0 0 0 0 0 0 0
0 0 0 0 0 0 0 0 0 -0 0 -0 -0 0 0 -0 -0 -0 0 0 0 0 0 0 0 0 -0 0 0 0 0 0 0 0 0 0 0 0 0 0 0 0 0
0 0 0 0 0 0 0 0 0 0 0 0 -0 0 -0 -0 0 -0 -0 0 0 0 0 0 0 0 -0 -0 0 0 0 0 0 0 0 0 0 0 0 0 0 0 0
0 0 -0 0 0 0 0 0 0 0 0 0 0 0 0 -0 -0 -0 0 -0 0 0 0 0 0 -0 -0 -0 0 -0 -0 0 0 0 0 0 0 0 0 0 0 0 0
-0 -0 -0 -0 0 -0 0 0 0 0 0 0 0 0 -0 0 -0 -0 0 0 0 -0 -0 -0 -0 -0 -0 -0 -0 -0 -0 0 0 0 0 0 0 -0 0 0 0 0 0
-0 -0 -0 -0 0 0 0 0 0 0 -0 0 0 -0 -0 0 -0 -0 -0 -0 0 0 -0 -0 -0 0 -0 0 -0 -0 -0 0 0 0 0 0 0 0 0 0 0 0 0
-0 -0 -0 -0 -0 0 0 0 0 0 -0 0 0 -0 -0 0 -0 -0 0 0 -0 -0 -0 -0 -0 -0 -0 0 0 0 0 0 0 0 0 0 0 0 0 -0 -0 -0 -0
-0 -0 -0 -0 -0 -0 0 0 0 0 0 -0 0 -0 -0 0 0 0 0 0 -0 -0 -0 -0 -0 -0 -0 -0 -0 -0 0 0 0 0 0 0 -0 0 0 -0 -0 -0 -0
-0 -0 -0 -0 -0 -0 0 0 0 0 0 0 0 -0 -0 -0 -0 -0 0 0 0 0 0 -0 -0 -0 -0 -0 -0 -0 0 0 0 0 0 0 -0 -0 -0 0 -0 -0 0
-0 -0 -0 -0 -0 -0 0 0 0 0 0 -0 -0 0 0 0 0 0 0 0 0 0 0 -0 0 -0 0 0 0 0 0 0 0 0 -0 -0 -0 0 -0 -0 -0 0 -0
-0 -0 -0 -0 -0 -0 0 0 0 0 0 -0 -0 0 0 -0 -0 -0 0 0 0 -0 -0 -0 0 0 0 0 -0 0 -0 0 -0 -0 -0 -0 -0 -0 -0 -0 -0 0 0
-0 -0 -0 -0 -0 -0 0 0 0 0 0 0 0 0 0 0 0 0 0 -0 -0 -0 -0 0 0 -0 -0 -0 -0 0 0 0 -0 -0 -0 -0 -0 -0 -0 -0 0 -0 -0
-0 -0 -0 -0 -0 -0 0 0 0 0 0 0 0 0 0 0 0 0 0 0 0 0 0 -0 -0 0 0 -0 -0 -0 0 -0 -0 -0 -0 -0 -0 -0 0 -0 0 0 0
-0 -0 -0 -0 0 -0 -0 0 0 0 0 0 0 0 0 0 0 0 0 0 0 0 0 0 0 0 0 -0 -0 -0 0 -0 -0 -0 -0 -0 0 0 -0 -0 -0 0 0
-0 -0 -0 -0 0 0 0 0 -0 -0 -0 -0 0 0 0 0 -0 -0 -0 -0 0 0 -0 0 0 -0 -0 -0 -0 0 -0 -0 -0 0 0 0 0 -0 -0 -0 0 0 0
-0 -0 -0 -0 -0 0 0 0 0 0 -0 -0 -0 -0 -0 -0 -0 -0 0 -0 -0 0 -0 0 -0 0 -0 -0 -0 -0 -0 -0 -0 0 0 -0 -0 -0 -0 0 0 0 0
-0 -0 -0 -0 -0 0 -0 0 0 0 -0 -0 -0 -0 -0 -0 -0 -0 -0 -0 -0 -0 -0 -0 -0 -0 -0 -0 -0 -0 -0 -0 -0 -0 -0 -0 -0 -0 0 0 0 0 0
-0 -0 0 -0 -0 -0 0 0 0 -0 -0 -0 -0 -0 -0 -0 -0 -0 -0 -0 -0 -0 0 0 0 0 -0 -0 -0 -0 -0 -0 -0 -0 -0 -0 0 0 0 0 0 0 0
-0 -0 -0 0 0 0 0 0 0 0 -0 -0 -0 -0 -0 -0 -0 -0 -0 -0 -0 -0 -0 0 0 0 -0 -0 -0 -0 -0 -0 -0 -0 -0 0 0 0 0 0 0 0 0
0 0 0 0 0 0 0 0 0 0 0 0 0 -0 -0 -0 -0 -0 -0 -0 -0 -0 -0 -0 0 0 0 -0 -0 -0 -0 0 0 0 0 0 0 0 0 0 0 0 0
0 0 0 0 0 0 0 0 0 0 0 0 0 0 -0 -0 0 0 0 -0 -0 -0 -0 -0 -0 -0 -0 0 0 0 0 0 0 0 0 0 0 0 0 0 0 0 0
1 0 0 0 0 0 0 0 0 0 0 0 0 0 0 0 0 0 0 0 0 0 0 -0 -0 0 0 0 0 0 0 0 0 0 0 0 0 0 0 0 0 0 0
1 0 0 0 0 0 0 0 0 0 0 0 0 0 0 0 0 0 0 0 0 0 0 0 0 0 0 0 0 0 0 0 0 0 0 0 0 0 0 0 0 0 0
1 0 0 1 0 0 0 0 0 0 0 0 0 0 0 0 0 0 0 0 0 0 0 0 0 0 0 0 0 0 0 0 0 0 0 0 0 0 0 0 0 0 0
1 1 0 1 1 0 0 0 0 0 0 0 0 0 0 0 0 0 0 0 0 0 0 0 0 0 0 0 0 0 0 0 0 0 0 0 0 0 0 0 0 0 0
Wind_Speed_500mb
23 19 12 8 4 3 5 5 4 7 16 9 14 13 15 14 13 9 5 7 3 6 5 6 8 15 13 14 27 30 29 29 31 35 32 30 41 48 56 56 78 75 75
24 22 13 8 4 9 9 7 5 7 14 15 13 17 15 14 10 8 7 10 6 4 5 3 11 7 8 20 23 23 22 15 21 37 37 38 47 64 83 86 74 74 71
28 21 18 5 6 11 9 7 5 10 20 15 13 16 14 13 11 10 9 7 8 4 7 11 9 16 21 22 21 12 15 15 17 27 49 54 62 74 84 85 86 71 60
31 22 17 10 7 8 10 12 8 10 23 23 14 16 16 12 10 10 7 10 11 12 12 6 13 16 17 19 21 15 14 23 38 48 73 83 88 92 95 94 85 70 64
29 27 17 10 14 9 12 9 18 10 20 20 23 20 17 15 13 12 12 15 12 11 12 11 12 13 12 15 16 19 18 36 64 87 82 90 86 85 83 77 75 63 48
31 28 15 22 16 8 4 12 20 10 18 21 19 22 18 14 12 18 11 15 11 10 10 7 8 6 12 17 14 13 18 41 67 77 80 87 85 83 75 68 60 53 46
32 26 24 22 12 12 7 9 19 18 20 18 20 19 16 13 19 17 15 17 11 12 16 16 10 5 15 17 19 17 23 50 70 87 84 81 81 74 71 57 51 48 51
32 29 28 21 20 16 6 3 19 17 19 20 21 17 12 19 23 18 14 15 14 17 16 15 16 17 17 22 31 33 43 64 79 79 69 69 63 51 49 47 45 41 43
33 31 28 32 21 20 11 7 15 11 12 24 22 16 18 25 24 24 23 19 20 19 15 14 10 13 19 23 35 45 45 61 61 63 50 45 52 44 45 53 47 49 51
35 32 30 31 29 24 16 8 12 8 13 23 24 17 22 24 20 18 15 18 22 27 21 22 21 28 28 28 32 37 45 59 64 57 58 52 52 46 43 43 42 39 45
37 34 32 33 31 23 17 17 7 13 19 21 27 20 22 16 13 15 14 17 18 27 30 29 34 37 34 38 38 46 45 51 55 56 57 59 54 45 41 39 37 12 29
39 38 37 32 30 26 18 25 12 9 13 31 32 28 21 21 19 17 25 19 21 35 34 33 37 37 34 44 39 43 44 50 54 57 66 66 53 42 43 39 38 38 35
43 42 43 34 37 31 22 32 16 17 26 37 34 28 29 26 21 24 36 28 31 41 34 38 35 37 42 41 41 47 46 56 58 65 60 53 47 40 38 40 40 36 31
48 47 46 45 36 29 26 32 23 21 23 27 29 24 32 32 30 38 40 35 39 32 34 39 37 39 35 48 46 44 41 46 54 56 51 38 34 37 46 42 37 41 37
53 51 49 50 42 36 31 30 28 27 25 32 30 26 32 41 39 41 41 36 35 31 38 40 37 34 38 47 47 39 33 28 36 35 36 39 39 40 40 38 38 40 40
58 57 53 49 54 42 43 36 35 30 27 21 36 22 12 28 43 43 42 38 26 27 34 36 28 26 36 43 47 32 26 40 36 41 43 47 45 45 48 41 34 35 36
64 60 55 51 51 48 46 45 46 39 39 28 25 29 25 19 23 41 42 44 38 32 29 30 26 27 26 34 38 37 36 49 49 49 46 46 41 37 40 37 37 38 37
68 62 59 58 54 52 51 47 45 51 48 49 41 38 30 32 32 31 45 47 51 48 44 37 43 39 39 36 29 30 28 30 38 40 34 33 38 37 37 42 42 42 44
73 67 63 59 54 50 52 51 47 46 46 45 56 53 48 39 36 33 46 57 55 56 53 44 42 39 43 43 45 46 46 48 50 46 50 47 46 48 51 50 51 48 45
75 69 68 57 55 54 54 54 52 49 50 50 53 61 62 57 54 53 54 56 57 55 57 52 49 41 52 45 49 52 52 54 57 58 53 61 61 58 58 57 55 54 52
74 72 66 56 59 59 58 58 55 54 53 57 58 57 55 68 66 63 63 64 65 54 50 52 57 53 44 47 50 54 56 56 56 57 59 59 57 60 57 59 56 56 56
71 71 75 73 57 58 61 59 59 56 55 54 57 62 54 42 64 71 71 71 71 69 61 56 52 51 60 56 57 60 61 60 60 60 62 62 61 62 61 62 62 60 52
70 67 71 77 70 58 63 60 59 60 58 57 55 58 62 62 56 53 60 65 67 74 78 71 68 63 63 62 65 67 64 66 67 64 64 67 69 68 62 63 64 58 58
72 66 67 75 71 67 64 70 65 64 62 59 58 60 62 63 64 62 56 54 60 59 54 56 75 79 66 66 68 68 69 70 68 65 62 66 66 65 65 62 59 60 61
63 70 64 69 79 69 65 69 71 65 68 66 64 64 62 64 63 66 66 59 62 68 70 67 61 56 67 79 70 67 66 68 69 68 67 62 60 60 61 61 60 59 62
40 49 65 56 68 69 76 64 75 77 69 74 72 70 69 69 67 66 64 60 63 67 69 72 73 69 64 59 60 75 74 71 70 67 64 65 67 58 62 64 59 63 71
Wind_Direction_500mb
166 154 169 179 282 258 135 152 230 165 156 152 125 117 141 161 209 235 190 141 160 262 280 291 251 222 224 197 172 167 168 166 172 156 147 150 154 163 169 182 179 167 154
158 166 146 154 237 167 126 115 127 153 145 132 130 142 148 164 182 193 164 184 216 297 161 135 150 162 168 154 158 152 166 167 173 158 152 159 165 169 171 158 146 145 146
166 158 148 154 83 141 153 147 145 147 144 157 136 142 171 151 166 163 169 165 110 140 118 135 119 121 121 139 146 140 170 154 144 159 158 174 168 171 150 148 149 148 145
172 163 154 155 106 143 145 132 124 118 150 139 148 129 118 131 132 142 147 122 119 123 129 151 152 108 124 154 162 173 171 176 155 154 155 143 141 148 152 146 142 148 160
169 170 160 152 112 111 108 141 132 150 150 153 156 139 142 148 163 149 140 150 155 152 135 172 157 154 157 166 171 167 164 159 145 141 135 141 145 144 144 148 149 156 159
168 169 165 158 128 117 61 134 138 142 151 150 160 150 155 172 200 161 130 141 130 158 162 146 112 148 141 136 158 168 166 161 152 147 144 143 147 150 153 156 157 161 146
171 173 151 166 142 148 145 107 152 152 145 147 143 151 184 180 159 156 134 130 117 110 111 117 118 135 136 137 138 140 145 166 159 150 150 157 161 161 159 158 166 168 167
171 170 164 177 137 154 162 132 161 161 157 159 144 168 184 155 149 151 131 129 128 118 133 147 157 146 138 145 140 143 151 162 165 162 158 158 153 155 152 146 141 144 145
172 171 169 165 139 152 148 119 146 145 135 147 158 165 150 144 141 134 126 145 146 158 148 154 193 181 163 156 154 144 154 166 169 168 161 153 158 152 150 147 147 158 160
174 172 170 172 148 161 156 145 123 145 145 160 165 150 150 146 139 127 123 136 139 145 136 127 122 118 126 150 157 153 159 166 171 169 164 160 151 151 154 157 162 167 176
173 169 168 171 156 172 159 149 140 137 156 161 154 148 157 163 158 136 122 162 158 137 131 120 111 114 116 139 138 144 153 160 171 170 166 160 163 156 161 156 148 190 188
174 171 168 177 159 177 164 146 152 128 142 147 150 153 159 160 149 128 133 138 140 151 139 121 117 119 121 130 133 141 141 148 155 156 160 166 170 170 169 172 188 197 211
176 175 173 168 176 176 173 154 166 129 124 144 158 162 159 166 146 131 135 114 123 141 132 128 124 122 121 129 129 131 138 155 155 160 166 174 180 179 178 195 201 213 222
176 177 176 171 183 172 176 157 165 171 146 150 161 175 168 169 158 147 146 130 135 137 139 141 139 136 130 132 130 128 138 152 164 170 174 179 186 188 197 209 215 220 224
179 179 182 179 177 172 173 166 178 172 200 177 177 186 189 180 175 165 165 150 148 144 147 147 146 149 150 152 144 141 152 159 170 176 177 184 195 201 213 225 229 228 232
181 181 185 184 183 186 187 179 185 187 200 186 184 202 162 193 181 178 166 150 151 162 162 160 151 162 165 164 160 153 178 181 192 190 189 202 212 218 223 229 225 227 232
186 187 189 188 192 190 191 195 193 186 195 208 180 186 192 178 179 190 181 167 177 180 174 173 175 186 187 192 192 195 197 196 197 198 209 222 227 221 219 225 226 227 236
193 193 193 190 198 193 196 197 201 206 199 203 203 207 199 201 192 194 198 186 188 192 191 194 194 202 205 211 208 211 215 217 215 218 223 229 227 222 222 228 237 231 233
199 195 195 199 199 196 200 199 201 205 209 206 212 210 212 209 204 205 203 209 207 204 196 202 209 209 214 211 216 216 218 218 225 228 215 225 231 224 226 233 238 240 234
203 198 198 202 198 203 199 200 204 205 205 203 216 215 212 210 208 205 204 205 211 216 216 208 211 230 224 228 221 222 223 224 227 236 239 228 228 234 234 233 235 238 234
198 202 204 197 202 204 202 204 205 208 206 203 208 229 224 218 216 216 214 211 210 211 222 223 218 214 221 225 227 227 230 231 232 234 240 241 242 233 234 238 237 240 244
198 201 203 205 205 207 206 208 207 208 210 210 209 220 232 227 228 226 227 225 223 218 213 224 231 231 221 228 232 232 232 234 234 235 236 239 241 243 237 240 241 240 245
202 202 207 211 208 212 211 209 212 210 213 214 212 216 227 227 229 232 238 239 235 233 229 221 220 229 233 236 236 233 234 235 235 237 239 241 239 240 241 241 243 244 240
207 209 210 211 213 212 216 212 212 215 213 215 215 218 225 229 230 234 239 242 239 245 242 238 233 227 227 236 238 240 241 241 238 239 243 244 244 240 244 242 246 247 239
210 212 216 215 211 216 216 218 213 216 218 216 217 217 227 233 233 232 236 239 232 232 237 247 251 249 241 232 233 239 243 245 243 242 238 242 246 243 242 241 240 242 242
227 218 220 224 216 214 216 221 219 215 218 222 218 219 219 230 235 236 237 236 231 230 237 238 244 251 254 255 247 238 238 244 247 247 245 244 239 242 243 241 239 240 239
Wind_Speed_850mb
23 19 12 8 4 3 5 5 4 7 16 9 14 13 15 14 13 9 5 7 3 6 5 6 8 15 13 14 27 30 29 29 31 35 32 30 41 48 56 56 78 75 75
24 22 13 8 4 9 9 7 5 7 14 15 13 17 15 14 10 8 7 10 6 4 5 3 11 7 8 20 23 23 22 15 21 37 37 38 47 64 83 86 74 74 71
28 21 18 5 6 11 9 7 5 10 20 15 13 16 14 13 11 10 9 7 8 4 7 11 9 16 21 22 21 12 15 15 17 27 49 54 62 74 84 85 86 71 60
31 22 17 10 7 8 10 12 8 10 23 23 14 16 16 12 10 10 7 10 11 12 12 6 13 16 17 19 21 15 14 23 38 48 73 83 88 92 95 94 85 70 64
29 27 17 10 14 9 12 9 18 10 20 20 23 20 17 15 13 12 12 15 12 11 12 11 12 13 12 15 16 19 18 36 64 87 82 90 86 85 83 77 75 63 48
31 28 15 22 16 8 4 12 20 10 18 21 19 22 18 14 12 18 11 15 11 10 10 7 8 6 12 17 14 13 18 41 67 77 80 87 85 83 75 68 60 53 46
32 26 24 22 12 12 7 9 19 18 20 18 20 19 16 13 19 17 15 17 11 12 16 16 10 5 15 17 19 17 23 50 70 87 84 81 81 74 71 57 51 48 51
32 29 28 21 20 16 6 3 19 17 19 20 21 17 12 19 23 18 14 15 14 17 16 15 16 17 17 22 31 33 43 64 79 79 69 69 63 51 49 47 45 41 43
33 31 28 32 21 20 11 7 15 11 12 24 22 16 18 25 24 24 23 19 20 19 15 14 10 13 19 23 35 45 45 61 61 63 50 45 52 44 45 53 47 49 51
35 32 30 31 29 24 16 8 12 8 13 23 24 17 22 24 20 18 15 18 22 27 21 22 21 28 28 28 32 37 45 59 64 57 58 52 52 46 43 43 42 39 45
37 34 32 33 31 23 17 17 7 13 19 21 27 20 22 16 13 15 14 17 18 27 30 29 34 37 34 38 38 46 45 51 55 56 57 59 54 45 41 39 37 12 29
39 38 37 32 30 26 18 25 12 9 13 31 32 28 21 21 19 17 25 19 21 35 34 33 37 37 34 44 39 43 44 50 54 57 66 66 53 42 43 39 38 38 35
43 42 43 34 37 31 22 32 16 17 26 37 34 28 29 26 21 24 36 28 31 41 34 38 35 37 42 41 41 47 46 56 58 65 60 53 47 40 38 40 40 36 31
48 47 46 45 36 29 26 32 23 21 23 27 29 24 32 32 30 38 40 35 39 32 34 39 37 39 35 48 46 44 41 46 54 56 51 38 34 37 46 42 37 41 37
53 51 49 50 42 36 31 30 28 27 25 32 30 26 32 41 39 41 41 36 35 31 38 40 37 34 38 47 47 39 33 28 36 35 36 39 39 40 40 38 38 40 40
58 57 53 49 54 42 43 36 35 30 27 21 36 22 12 28 43 43 42 38 26 27 34 36 28 26 36 43 47 32 26 40 36 41 43 47 45 45 48 41 34 35 36
64 60 55 51 51 48 46 45 46 39 39 28 25 29 25 19 23 41 42 44 38 32 29 30 26 27 26 34 38 37 36 49 49 49 46 46 41 37 40 37 37 38 37
68 62 59 58 54 52 51 47 45 51 48 49 41 38 30 32 32 31 45 47 51 48 44 37 43 39 39 36 29 30 28 30 38 40 34 33 38 37 37 42 42 42 44
73 67 63 59 54 50 52 51 47 46 46 45 56 53 48 39 36 33 46 57 55 56 53 44 42 39 43 43 45 46 46 48 50 46 50 47 46 48 51 50 51 48 45
75 69 68 57 55 54 54 54 52 49 50 50 53 61 62 57 54 53 54 56 57 55 57 52 49 41 52 45 49 52 52 54 57 58 53 61 61 58 58 57 55 54 52
74 72 66 56 59 59 58 58 55 54 53 57 58 57 55 68 66 63 63 64 65 54 50 52 57 53 44 47 50 54 56 56 56 57 59 59 57 60 57 59 56 56 56
71 71 75 73 57 58 61 59 59 56 55 54 57 62 54 42 64 71 71 71 71 69 61 56 52 51 60 56 57 60 61 60 60 60 62 62 61 62 61 62 62 60 52
70 67 71 77 70 58 63 60 59 60 58 57 55 58 62 62 56 53 60 65 67 74 78 71 68 63 63 62 65 67 64 66 67 64 64 67 69 68 62 63 64 58 58
72 66 67 75 71 67 64 70 65 64 62 59 58 60 62 63 64 62 56 54 60 59 54 56 75 79 66 66 68 68 69 70 68 65 62 66 66 65 65 62 59 60 61
63 70 64 69 79 69 65 69 71 65 68 66 64 64 62 64 63 66 66 59 62 68 70 67 61 56 67 79 70 67 66 68 69 68 67 62 60 60 61 61 60 59 62
40 49 65 56 68 69 76 64 75 77 69 74 72 70 69 69 67 66 64 60 63 67 69 72 73 69 64 59 60 75 74 71 70 67 64 65 67 58 62 64 59 63 71
Wind_Direction_850mb
166 154 169 179 282 258 135 152 230 165 156 152 125 117 141 161 209 235 190 141 160 262 280 291 251 222 224 197 172 167 168 166 172 156 147 150 154 163 169 182 179 167 154
158 166 146 154 237 167 126 115 127 153 145 132 130 142 148 164 182 193 164 184 216 297 161 135 150 162 168 154 158 152 166 167 173 158 152 159 165 169 171 158 146 145 146
166 158 148 154 83 141 153 147 145 147 144 157 136 142 171 151 166 163 169 165 110 140 118 135 119 121 121 139 146 140 170 154 144 159 158 174 168 171 150 148 149 148 145
172 163 154 155 106 143 145 132 124 118 150 139 148 129 118 131 132 142 147 122 119 123 129 151 152 108 124 154 162 173 171 176 155 154 155 143 141 148 152 146 142 148 160
169 170 160 152 112 111 108 141 132 150 150 153 156 139 142 148 163 149 140 150 155 152 135 172 157 154 157 166 171 167 164 159 145 141 135 141 145 144 144 148 149 156 159
168 169 165 158 128 117 61 134 138 142 151 150 160 150 155 172 200 161 130 141 130 158 162 146 112 148 141 136 158 168 166 161 152 147 144 143 147 150 153 156 157 161 146
171 173 151 166 142 148 145 107 152 152 145 147 143 151 184 180 159 156 134 130 117 110 111 117 118 135 136 137 138 140 145 166 159 150 150 157 161 161 159 158 166 168 167
171 170 164 177 137 154 162 132 161 161 157 159 144 168 184 155 149 151 131 129 128 118 133 147 157 146 138 145 140 143 151 162 165 162 158 158 153 155 152 146 141 144 145
172 171 169 165 139 152 148 119 146 145 135 147 158 165 150 144 141 134 126 145 146 158 148 154 193 181 163 156 154 144 154 166 169 168 161 153 158 152 150 147 147 158 160
174 172 170 172 148 161 156 145 123 145 145 160 165 150 150 146 139 127 123 136 139 145 136 127 122 118 126 150 157 153 159 166 171 169 164 160 151 151 154 157 162 167 176
173 169 168 171 156 172 159 149 140 137 156 161 154 148 157 163 158 136 122 162 158 137 131 120 111 114 116 139 138 144 153 160 171 170 166 160 163 156 161 156 148 190 188
174 171 168 177 159 177 164 146 152 128 142 147 150 153 159 160 149 128 133 138 140 151 139 121 117 119 121 130 133 141 141 148 155 156 160 166 170 170 169 172 188 197 211
176 175 173 168 176 176 173 154 166 129 124 144 158 162 159 166 146 131 135 114 123 141 132 128 124 122 121 129 129 131 138 155 155 160 166 174 180 179 178 195 201 213 222
176 177 176 171 183 172 176 157 165 171 146 150 161 175 168 169 158 147 146 130 135 137 139 141 139 136 130 132 130 128 138 152 164 170 174 179 186 188 197 209 215 220 224
179 179 182 179 177 172 173 166 178 172 200 177 177 186 189 180 175 165 165 150 148 144 147 147 146 149 150 152 144 141 152 159 170 176 177 184 195 201 213 225 229 228 232
181 181 185 184 183 186 187 179 185 187 200 186 184 202 162 193 181 178 166 150 151 162 162 160 151 162 165 164 160 153 178 181 192 190 189 202 212 218 223 229 225 227 232
186 187 189 188 192 190 191 195 193 186 195 208 180 186 192 178 179 190 181 167 177 180 174 173 175 186 187 192 192 195 197 196 197 198 209 222 227 221 219 225 226 227 236
193 193 193 190 198 193 196 197 201 206 199 203 203 207 199 201 192 194 198 186 188 192 191 194 194 202 205 211 208 211 215 217 215 218 223 229 227 222 222 228 237 231 233
199 195 195 199 199 196 200 199 201 205 209 206 212 210 212 209 204 205 203 209 207 204 196 202 209 209 214 211 216 216 218 218 225 228 215 225 231 224 226 233 238 240 234
203 198 198 202 198 203 199 200 204 205 205 203 216 215 212 210 208 205 204 205 211 216 216 208 211 230 224 228 221 222 223 224 227 236 239 228 228 234 234 233 235 238 234
198 202 204 197 202 204 202 204 205 208 206 203 208 229 224 218 216 216 214 211 210 211 222 223 218 214 221 225 227 227 230 231 232 234 240 241 242 233 234 238 237 240 244
198 201 203 205 205 207 206 208 207 208 210 210 209 220 232 227 228 226 227 225 223 218 213 224 231 231 221 228 232 232 232 234 234 235 236 239 241 243 237 240 241 240 245
202 202 207 211 208 212 211 209 212 210 213 214 212 216 227 227 229 232 238 239 235 233 229 221 220 229 233 236 236 233 234 235 235 237 239 241 239 240 241 241 243 244 240
207 209 210 211 213 212 216 212 212 215 213 215 215 218 225 229 230 234 239 242 239 245 242 238 233 227 227 236 238 240 241 241 238 239 243 244 244 240 244 242 246 247 239
210 212 216 215 211 216 216 218 213 216 218 216 217 217 227 233 233 232 236 239 232 232 237 247 251 249 241 232 233 239 243 245 243 242 238 242 246 243 242 241 240 242 242
227 218 220 224 216 214 216 221 219 215 218 222 218 219 219 230 235 236 237 236 231 230 237 238 244 251 254 255 247 238 238 244 247 247 245 244 239 242 243 241 239 240 239